Location: Moscow
(55.7500°N, 37.5830°E)
Time: 22:08:35
(UTC+03:00)

COSMOS 2251 DEB - Pass Details

Date: 05 July 2022
Orbit: 738 x 847 km, 74.1° (Epoch: 17 August)

Event Time Altitude Azimuth Distance (km) Brightness Sun altitude
Rises 22:17:11 0° 284° (WNW) 3,312 ? -6.3°
Reaches altitude 10° 22:21:01 10° 311° (NW) 2,357 ? -6.6°
Maximum altitude 22:23:34 13° 339° (NNW) 2,113 ? -6.7°
Drops below altitude 10° 22:26:05 10° 8° (N) 2,325 ? -6.9°
Sets 22:29:49 0° 35° (NE) 3,230 ? -7.2°
